Regional Weather Roundup
Issued by NWS

Home | Current Version | Previous Version | Text Only | Print | Product List | Glossary Off
Versions: 1 2 3 4 5 6 7 8 9 10 11 12 13 14 15 16 17 18 19 20 21 22 23 24 25 26 27 28 29 30 31 32 33 34 35 36 37 38 39 40 41 42 43 44 45 46 47 48 49 50

000
ASUS44 KMEG 160310
RWRTN
TENNESSEE HOURLY STATE WEATHER ROUNDUP
NATIONAL WEATHER SERVICE MEMPHIS TN
1000 PM CDT TUE APR 15 2014

TNZ002-004-019-021-049-052-054-088>092-160400-
WEST TENNESSEE

CITY           SKY/WX    TMP DP  RH WIND       PRES   REMARKS
MEMPHIS INTL   CLEAR     44  24  45 SE5       30.24R
NWS MEMPHIS      N/A     38 N/A N/A MISG        N/A
JACKSON        CLEAR     35  27  72 CALM      30.24R
DYERSBURG      CLEAR     39  21  48 CALM      30.25R
UNION CITY     CLEAR     37  32  81 CALM      30.22R
PARIS          CLEAR     32  26  78 CALM      30.23R
LEXINGTON      CLEAR     36  27  69 NE3       30.21R
SAVANNAH       CLEAR     34  28  79 CALM      30.24
$$

TNZ008-025-027-028-033-062-065-066-160400-
NORTH MIDDLE TENNESSEE

CITY           SKY/WX    TMP DP  RH WIND       PRES   REMARKS
NASHVILLE      CLEAR     39  22  50 N8        30.22R WCI  33
DICKSON        CLEAR     36  19  51 NE5       30.20R WCI  32
PORTLAND       CLEAR     34  23  64 N6        30.21R WCI  29
CLARKSVILLE    CLEAR     36  24  62 NE6       30.23S WCI  31
SMYRNA         CLEAR     38  24  57 N7        30.24R WCI  33
MURFREESBORO   CLEAR     38  24  57 N7        30.21R WCI  33
LIVINGSTON     CLEAR     34  20  57 N8        30.17R WCI  27
GALLATIN       CLEAR     37  22  55 N7        30.22R WCI  31
CROSSVILLE     CLEAR     36  21  54 N6        30.14R WCI  31
$$

TNZ061-075-076-078-094-096-097-160400-
SOUTH MIDDLE TENNESSEE

CITY           SKY/WX    TMP DP  RH WIND       PRES   REMARKS
LEWISBURG      CLEAR     35  23  62 N5        30.21R WCI  31
FAYETTEVILLE   CLEAR     36  22  57 N8        30.19R WCI  30
TULLAHOMA      CLEAR     36  21  55 N9        30.19R WCI  29
WINCHESTER     CLEAR     36  23  60 NW6       30.19R WCI  31
MCMINNVILLE    CLEAR     34  23  64 N3        30.17R
COLUMBIA       CLEAR     37  27  65 N5        30.21R WCI  34
SHELBYVILLE    CLEAR     34  27  75 N5        30.21R WCI  30
$$

TNZ017-018-042-046-047-160400-
NORTHEAST TENNESSEE

CITY           SKY/WX    TMP DP  RH WIND       PRES   REMARKS
TRI CITIES     CLOUDY    35  19  52 N12       30.14F WCI  27
ELIZABETHTON   CLOUDY    32  19  59 CALM      30.12F
$$

TNZ012-013-036-069-073-074-160400-
CENTRAL EAST TENNESSEE

CITY           SKY/WX    TMP DP  RH WIND       PRES   REMARKS
KNOXVILLE      MOCLDY    39  24  55 NE15      30.15R WCI  31
OAK RIDGE      CLEAR     37  24  59 VRB3      30.18R
$$

TNZ083-085-099-160400-
SOUTHEAST TENNESSEE

CITY           SKY/WX    TMP DP  RH WIND       PRES   REMARKS
CHATTANOOGA    CLEAR     41  23  48 N10       30.16R
$$

SKY/WX REPORTED AS FAIR MEANS FEW OR NO CLOUDS BELOW
12 THOUSAND FEET.




USA.gov is the U.S. government's official web portal to all federal, state and local government web resources and services.